Regional Weather Roundup
Issued by NWS

Home | Current Version | Previous Version | Text Only | Print | Product List | Glossary Off
Versions: 1 2 3 4 5 6 7 8 9 10 11 12 13 14 15 16 17 18 19 20 21 22 23 24 25 26 27 28 29 30 31 32 33 34 35 36 37 38 39 40 41 42 43 44 45 46 47 48 49 50

000
ASUS43 KLOT 230010
RWRIL

ILLINOIS REGIONAL WEATHER ROUNDUP
NATIONAL WEATHER SERVICE CHICAGO/ROMEOVILLE IL
700 PM CDT TUE APR 22 2014

NOTE: "FAIR" INDICATES FEW OR NO CLOUDS BELOW 12,000 FEET WITH NO
SIGNIFICANT WEATHER AND/OR OBSTRUCTIONS TO VISIBILITY.

* THESE STATIONS ARE NOT UNDER NWS QUALITY CONTROL. THEY ALSO MAY NOT
  REPORT WEATHER SUCH AS PRECIPITATION OR FOG.

ILZ001-002-007-009-015-016-024-230100-
NORTHWEST ILLINOIS

CITY           SKY/WX    TMP DP  RH WIND       PRES   REMARKS
MOLINE         NOT AVBL
STERLING*      CLEAR     57  30  35 N13       29.98F
SAVANNA*       PTCLDY    58  24  26 NW8       30.00R
$$

ILZ003-004-008-010-011-017-018-230100-
NORTH CENTRAL ILLINOIS

CITY           SKY/WX    TMP DP  RH WIND       PRES   REMARKS
ROCKFORD       PTCLDY    56  25  30 N13       30.01R
6HR MIN TEMP:  56; 6HR MAX TEMP:  62;

FREEPORT*      PTCLDY    55  22  28 N10       30.01S
ROCHELLE*      CLEAR     56  26  30 N13       29.99R
DE KALB*       CLEAR     54  25  32 N16       29.99R
PERU*          CLEAR     59  29  32 N12       29.98S
$$

ILZ005-006-012>014-019>023-230100-
NORTHEAST ILLINOIS

CITY           SKY/WX    TMP DP  RH WIND       PRES   REMARKS
CHICAGO-OHARE  PTCLDY    47  28  47 E10       30.01R
6HR MIN TEMP:  46; 6HR MAX TEMP:  61;

CHICAGO-MIDWAY PTCLDY    45  30  55 E12       30.01R
6HR MIN TEMP:  45; 6HR MAX TEMP:  58;

AURORA         CLEAR     55  26  32 N15       29.98R
6HR MIN TEMP:  55; 6HR MAX TEMP:  62;

LANSING*       CLEAR     44  29  57 NE9       30.01R
JOLIET*        CLEAR     49  32  52 E12G17    29.99R
WAUKEGAN       CLEAR     42  27  55 NE7       30.01R
6HR MIN TEMP:  42; 6HR MAX TEMP:  55;

DUPAGE AIRPORT CLEAR     49  31  49 E15       29.98R
6HR MIN TEMP:  49; 6HR MAX TEMP:  61;

KANKAKEE*      PTCLDY    52  37  56 NE12      29.97R
WHEELING       CLEAR     45  29  53 E10       30.03R
6HR MIN TEMP:  45; 6HR MAX TEMP:  60;

MORRIS*        CLEAR     59  21  23 N9        29.96S
ROMEOVILLE*    CLEAR     47  31  53 E15       29.99R
NORTHERLY ISL    N/A     42  32  67 NE9         N/A
$$

LMZ740>746-230100-
SOUTHERN LAKE MICHIGAN

STATION/POSITION SKY/WX   TEMP    WIND        PRES    VSBY  WAVE
                          AIR SEA DIR/SP/G                  HT/PER
                          (F)     (DEG/KT/KT) (MB)    (MI)  (FT/S)
WAUKEGAN HARBOR            43     130/  1/  2 1017.9R
HARRISON CRIB              40      60/  8/ 10   N/A
BURNHAM HARBOR             42      60/  6/ 12   N/A
CALUMET HARBOR             42      50/ 10/ 13 1017.2R
MICHIGAN CITY              41      20/ 11/ 14   N/A
$$

ILZ025>027-034>036-040-047-049-050-058-095>099-230100-
WEST-CENTRAL ILLINOIS

CITY           SKY/WX    TMP DP  RH WIND       PRES   REMARKS
QUINCY         CLEAR     62  32  32 N10       30.00F
GALESBURG*     CLEAR     60  31  33 NW10      29.99S
MACOMB*        CLEAR     62  27  26 N10       30.02S
JACKSONVILLE*  CLEAR     64  29  26 NW8       30.00S
PITTSFIELD*    CLEAR     64  30  28 NW9       30.01S
$$

ILZ028>032-037-038-041>044-048-051>054-059>061-230100-
CENTRAL ILLINOIS

CITY           SKY/WX    TMP DP  RH WIND       PRES   REMARKS
PONTIAC        PTCLDY    61  28  29 NW13G18   29.97R
BLOOMINGTON    PTCLDY    59  26  28 N15       29.97F
DECATUR        CLEAR     63  28  26 NW14      29.96S
PEORIA         CLEAR     63  26  24 N7        29.98S
6HR MIN TEMP:  60; 6HR MAX TEMP:  66;

LACON*         PTCLDY    59  28  29 N13       29.98R
LINCOLN*       CLEAR     63  28  26 NW3       29.96S
SPRINGFIELD    CLEAR     64  28  25 NW10      29.98S
6HR MIN TEMP:  62; 6HR MAX TEMP:  68;

TAYLORVILLE    CLEAR     63  30  29 N14       29.97S
$$

ILZ033-039-045-046-055>057-062-063-230100-
EAST-CENTRAL ILLINOIS

CITY           SKY/WX    TMP DP  RH WIND       PRES   REMARKS
CHAMPAIGN      PTCLDY    61  31  32 N16       29.95S
RANTOUL*       MOCLDY    61  31  32 N8        29.96F
MATTOON        PTCLDY    60  31  33 N13       29.94S
PARIS*         PTCLDY    60  34  37 N8        29.96R
$$

ILZ079-100>102-230100-
SOUTHWEST ILLINOIS

CITY           SKY/WX    TMP DP  RH WIND       PRES   REMARKS
ALTON          CLEAR     64  27  24 NW8       29.98S
BELLEVILLE     CLEAR     66  35  31 VRB6      29.97R
CAHOKIA*       CLEAR     65  38  36 NW13      29.97F
SPARTA*        CLEAR     63  36  36 N9        29.98S
$$

ILZ064>066-069>071-074>076-080>082-084>086-088>090-092>094-230100-
SOUTH-CENTRAL ILLINOIS

CITY           SKY/WX    TMP DP  RH WIND       PRES   REMARKS
CARBONDALE     CLEAR     64  40  41 N9        29.97S
6HR MIN TEMP:  64; 6HR MAX TEMP:  70;

CAIRO*         CLEAR     70  36  28 N10G20    29.94S
MARION         CLEAR     66  37  34 NW8       29.97S
MT. VERNON     CLEAR     64  34  32 CALM      29.97R
CENTRALIA*       N/A     64  33  31 CALM      29.96S
SALEM*         CLEAR     65  38  37 N14G20    29.96S
METROPOLIS*    CLEAR     67  30  24 N12       29.94R
$$

ILZ067-068-072-073-078-083-087-091-230100-
SOUTHEAST ILLINOIS

CITY           SKY/WX    TMP DP  RH WIND       PRES   REMARKS
FAIRFIELD*     CLEAR     64  37  36 N3        29.95S
HARRISBURG*    CLEAR     64  38  37 NW9       29.96S
ROBINSON*      CLEAR     64  33  31 N10G17    29.95R
CARMI*         CLEAR     66  39  37 NW13      29.94S
$$

ABBREVIATIONS USED IN REMARKS
   TC - TEMPERATURE IN CELSIUS
  WCI - WIND CHILL INDEX
   HX - HEAT INDEX
  VSB - VISIBILITY
$$




USA.gov is the U.S. government's official web portal to all federal, state and local government web resources and services.